RH
62 64 62 61 60 55 48 45 45 47 50 63 82 77 74 78 74 78 80 81 83 85 82 45 19 23 33 36 34 39 49 39 42 46 47 47 38 34 32 30 30 33 32
60 59 58 53 53 51 50 48 46 48 53 54 71 79 74 71 74 79 81 83 84 85 80 39 19 19 28 29 30 32 38 37 42 45 46 44 38 36 33 30 36 38 38
58 58 55 57 54 54 55 52 49 49 55 55 58 80 72 70 75 77 84 83 86 82 79 27 18 17 21 24 27 27 37 40 45 47 46 41 38 37 35 30 40 41 40
65 58 53 53 53 53 53 51 51 50 59 64 63 76 80 75 76 79 79 81 84 80 70 19 18 16 19 20 24 25 29 36 46 43 41 41 41 38 37 32 35 43 39
63 57 55 54 56 60 55 52 53 56 64 77 66 76 92 85 84 81 79 80 81 81 47 18 18 15 17 18 19 23 31 35 41 42 42 41 39 39 37 38 42 48 42
68 62 57 61 64 66 64 58 51 60 71 83 70 81 91 90 86 80 79 82 84 67 33 18 17 15 17 18 24 23 30 36 38 39 37 37 35 36 35 38 43 46 45
69 61 58 61 69 75 73 67 63 67 71 81 78 81 86 88 86 78 80 78 70 56 28 14 12 15 15 19 25 26 28 30 35 36 36 34 33 34 34 37 39 42 44
65 60 56 54 65 74 74 75 78 74 73 78 83 85 90 89 88 80 79 78 67 55 27 11 13 19 19 19 22 25 25 29 31 34 37 35 34 34 33 32 35 38 41
69 59 53 50 58 73 75 80 80 75 77 82 85 87 91 90 86 82 79 74 68 54 32 11 15 20 23 20 19 22 24 26 27 28 33 33 31 29 29 31 32 34 38
68 55 49 46 54 68 73 78 79 76 77 82 86 90 89 87 81 76 73 71 67 51 27 10 12 17 23 21 20 23 27 25 26 28 28 29 29 29 28 28 32 33 40
67 53 48 46 49 60 73 73 77 79 81 84 85 88 89 80 76 71 69 73 69 49 26 9 13 16 20 22 23 25 28 26 24 26 26 26 27 28 29 32 37 39 42
69 52 44 41 41 45 67 75 78 75 68 64 59 60 61 62 67 69 69 67 66 47 25 12 14 16 21 22 23 21 24 27 26 26 26 27 29 32 33 33 32 35 34
64 50 38 39 40 43 41 60 66 61 51 46 47 52 65 66 67 63 68 69 65 42 17 13 16 20 22 22 23 22 23 26 26 28 30 33 35 36 36 35 33 31 30
66 50 33 35 39 43 40 35 47 45 38 40 43 51 68 69 64 66 77 72 52 29 17 15 21 23 26 24 24 23 22 24 24 25 27 28 31 33 34 34 34 35 36
63 47 33 32 34 37 40 35 39 38 35 35 41 47 60 65 58 58 68 58 38 27 19 16 22 24 26 27 27 24 23 24 24 24 25 27 29 31 32 32 32 33 35
64 63 41 39 34 31 36 40 36 36 38 43 47 49 52 48 54 59 57 50 36 28 22 22 24 23 23 24 25 25 24 24 24 24 25 25 26 27 29 31 32 34 36
74 69 65 53 51 44 35 39 42 38 37 44 52 51 50 49 51 54 58 48 38 33 29 27 25 26 26 25 25 24 25 25 25 26 26 27 27 28 29 30 32 33 35
81 84 73 64 71 69 52 40 45 47 37 39 46 50 44 44 49 56 54 54 45 39 39 33 28 26 25 25 24 25 26 26 27 28 27 26 27 28 29 30 32 33 35
77 75 87 96 94 79 81 62 41 44 43 40 42 49 44 44 47 49 55 52 44 42 41 39 34 31 26 24 25 25 26 26 27 26 26 26 28 28 29 31 32 32 32
72 69 57 63 72 81 88 89 59 72 53 42 36 34 37 40 41 45 41 39 38 38 37 38 37 35 32 27 24 25 26 26 27 27 28 28 28 29 30 32 31 33 34
58 62 65 70 81 65 77 90 87 66 82 72 38 35 31 25 31 35 39 39 36 35 38 37 37 37 35 30 27 28 28 27 28 28 29 29 30 31 33 35 39 41 41
46 47 56 64 67 69 76 76 55 57 49 95 52 49 53 42 31 25 28 32 35 36 35 39 40 39 37 38 37 37 34 33 33 34 35 36 38 39 40 41 41 41 39
41 43 47 50 56 60 62 57 43 51 58 77 82 85 69 53 55 43 27 23 27 29 36 37 37 38 39 39 38 39 39 37 38 40 39 39 39 39 37 37 36 37 46
40 40 43 42 41 46 51 58 59 56 56 80 87 93 83 72 92 72 58 44 34 29 29 34 35 34 34 34 35 34 33 35 40 42 43 42 41 42 44 48 49 51 60
38 38 43 42 41 39 43 46 49 52 50 46 59 67 63 83 76 84 77 64 59 62 57 54 56 54 53 50 48 50 54 55 53 54 56 58 57 59 61 61 67 73 73
38 34 35 47 46 42 39 38 43 50 46 41 44 47 50 72 84 88 96 84 71 66 66 61 62 60 58 56 60 62 65 66 63 61 59 61 63 69 72 75 78 78 77